Crestview, FL

9:53 PM CDT on September 20, 2017 (GMT -0500)
Sikes

Weather History for KCEW - January, 2014

Change the Weather History Date:

Friday, January 24, 2014

  Actual Average Record
Temperature  
Mean Temperature 36 °F -  
Max Temperature 39 °F 62 °F 79 °F (1949)
Min Temperature 32 °F 38 °F 16 °F (2003)
Degree Days  
Heating Degree Days 30    
Moisture  
Dew Point 7 °F    
Average Humidity 30    
Maximum Humidity 44    
Minimum Humidity 20    
Precipitation  
Precipitation 0.00 in - - ()
Sea Level Pressure  
Sea Level Pressure 30.50 in    
Wind  
Wind Speed 9 mph (NNE)    
Max Wind Speed 14 mph    
Max Gust Speed 23 mph    
Visibility 10 miles    
Events Rain    
Averages and records for this station are not official NWS values.
T = Trace of Precipitation, MM = Missing Value Source: NWS Daily Summary

Daily Weather History Graph

Daily Weather History Graph

Search for Another Location

Airport or City:

Trip Planner

Search our weather history database for the weather conditions in past years. The results will help you decide how hot, cold, wet, or windy it might be!

Date:

Astronomy

Jan. 24, 2014 Rise Set
Actual Time 6:41 AM CST 5:15 PM CST
Civil Twilight 6:16 AM CST 5:40 PM CST
Nautical Twilight 5:46 AM CST 6:09 PM CST
Astronomical Twilight 5:18 AM CST 6:38 PM CST
Moon 12:14 AM CST (1/24) 11:29 AM CST (1/24)
Length of Visible Light 11h 24m
Length of Day
10h 33m
Last Quarter, 44% of the Moon is Illuminated
Jan 24
Last Quarter
Jan 30
New
Feb 6
First Quarter
Feb 14
Full
Feb 22
Last Quarter

Hourly Weather History & Observations

Time (CST) Temp. Windchill Dew Point Humidity Pressure Visibility Wind Dir Wind Speed Gust Speed Precip Events Conditions
12:53 AM 39.9 °F 32.9 °F 14.0 °F 35% 30.56 in 10.0 mi North 11.5 mph 20.7 mph N/A   Overcast
1:53 AM 37.9 °F 30.0 °F 14.0 °F 38% 30.58 in 10.0 mi North 12.7 mph 20.7 mph N/A   Overcast
2:53 AM 36.0 °F 27.1 °F 10.9 °F 36% 30.58 in 10.0 mi North 13.8 mph 19.6 mph N/A   Overcast
3:53 AM 35.1 °F 26.9 °F 9.0 °F 34% 30.58 in 10.0 mi North 11.5 mph 20.7 mph N/A   Overcast
4:53 AM 34.0 °F 29.8 °F 12.0 °F 40% 30.58 in 10.0 mi North 4.6 mph - N/A   Overcast
5:53 AM 32.0 °F 24.8 °F 3.9 °F 31% 30.58 in 10.0 mi North 8.1 mph - N/A   Overcast
6:53 AM 32.0 °F 23.6 °F 3.0 °F 29% 30.59 in 10.0 mi NNE 10.4 mph 20.7 mph N/A   Overcast
7:53 AM 32.0 °F 24.8 °F 1.9 °F 28% 30.61 in 10.0 mi NNE 8.1 mph 17.3 mph N/A   Overcast
8:53 AM 33.1 °F 23.9 °F -2.0 °F 22% 30.61 in 10.0 mi NE 12.7 mph 23.0 mph N/A   Mostly Cloudy
9:53 AM 35.1 °F 27.4 °F -0.9 °F 22% 30.61 in 10.0 mi NNE 10.4 mph 16.1 mph N/A   Mostly Cloudy
10:53 AM 37.0 °F 30.4 °F 1.0 °F 22% 30.59 in 10.0 mi North 9.2 mph - N/A   Partly Cloudy
11:53 AM 39.9 °F 34.5 °F 1.0 °F 20% 30.53 in 10.0 mi North 8.1 mph - N/A   Mostly Cloudy
12:53 PM 39.9 °F 34.5 °F 1.0 °F 20% 30.49 in 10.0 mi NE 8.1 mph - N/A   Overcast
1:53 PM 39.9 °F 35.8 °F 1.0 °F 20% 30.47 in 10.0 mi Variable 5.8 mph - N/A   Overcast
2:53 PM 39.9 °F 35.1 °F 1.0 °F 20% 30.45 in 10.0 mi NE 6.9 mph - N/A   Overcast
3:53 PM 39.0 °F 34.8 °F 3.0 °F 22% 30.45 in 10.0 mi NNE 5.8 mph - 0.00 in Rain Light Rain
4:53 PM 37.9 °F 34.4 °F 5.0 °F 25% 30.45 in 10.0 mi North 4.6 mph - 0.00 in   Overcast
5:53 PM 37.9 °F - 10.0 °F 32% 30.45 in 10.0 mi Calm Calm - 0.00 in   Overcast
6:53 PM 37.9 °F - 10.9 °F 33% 30.44 in 10.0 mi Calm Calm - 0.00 in   Overcast
7:53 PM 37.0 °F - 14.0 °F 39% 30.43 in 10.0 mi Calm Calm - 0.00 in   Overcast
8:53 PM 37.0 °F - 10.9 °F 34% 30.41 in 10.0 mi Calm Calm - N/A   Overcast
9:53 PM 37.0 °F - 15.1 °F 41% 30.39 in 10.0 mi Calm Calm - N/A   Overcast
10:53 PM 37.0 °F 34.5 °F 17.1 °F 44% 30.36 in 10.0 mi SSW 3.5 mph - N/A   Overcast
11:53 PM 37.0 °F 32.4 °F 16.0 °F 42% 30.33 in 10.0 mi SSW 5.8 mph - N/A   Overcast